Regional Weather Roundup
Issued by NWS Newport/Morehead, NC

Current Version | Previous Version | Text Only | Print | Product List | Glossary Off
Versions: 1 2 3 4 5 6 7 8 9 10 11 12 13 14 15 16 17 18 19 20 21 22 23 24 25 26 27 28 29 30 31 32 33 34 35 36 37 38 39 40 41 42 43 44 45 46 47 48 49 50
000 ASUS42 KMHX 211222 RWRMHX WEATHER ROUNDUP FOR EASTERN NORTH CAROLINA NATIONAL WEATHER SERVICE NEWPORT/MOREHEAD CITY NC 700 AM EST SUN JAN 21 2018 NOTE: "FAIR" INDICATES FEW OR NO CLOUDS BELOW 12,000 FEET WITH NO SIGNIFICANT WEATHER AND/OR OBSTRUCTIONS TO VISIBILITY NCZ015>017-031-032-045>047-102-103-211300- NORTH COAST CITY SKY/WX TMP DP RH WIND PRES REMARKS EDENTON FAIR 36 32 84 CALM 30.22R ELIZABETH CITY FAIR 36 33 89 W5 30.20R KITTY HAWK FAIR 37 30 75 CALM 30.18S MANTEO FAIR 41 29 63 NW6 30.21R $$ NCZ045>047-081-094-103-104-211300- CENTRAL COAST CITY SKY/WX TMP DP RH WIND PRES REMARKS FRISCO FAIR 44 34 67 W6 30.20R $$ NCZ095-097-098-100-101-211300- SOUTHERN COAST CITY SKY/WX TMP DP RH WIND PRES REMARKS BEAUFORT FAIR 44 36 73 W3 30.24R CEDAR ISLAND NOT AVBL JACKSONVILLE FAIR 39 32 76 W3 30.24R PINEY ISLAND NOT AVBL WILMINGTON FAIR 38 34 85 CALM 30.25S $$ NCZ011>013-027>030-043-044-078>080-089-090>093-098-211300- COASTAL PLAIN CITY SKY/WX TMP DP RH WIND PRES REMARKS AHOSKIE FAIR 30 29 95 CALM 30.22R CLINTON FAIR 33 30 87 CALM 30.24F ELIZABETHTOWN NOT AVBL GOLDSBORO FAIR 37 26 64 CALM 30.21R GREENVILLE FAIR 32 28 86 CALM 30.24R HAVELOCK NOT AVBL KENANSVILLE FAIR 32 28 86 CALM 30.23F KINSTON FAIR 37 28 70 CALM 30.23R NEW BERN FAIR 41 29 62 W5 30.24R RICHLANDS FAIR 32 29 88 S3 30.24S ROCKY MOUNT NOT AVBL WASHINGTON FAIR 36 27 69 SW3 30.23R WHITEVILLE FAIR 37 32 84 CALM 30.26R $$ AMZ130-135-150-152-154-156-158-170-250-252-270-ANZ085-086-088-633-658-670-211300- MARINE OBSERVATIONS STATION/POSITION TIME TEMP WIND PRES WAVE SWELL AIR SEA DIR/SP/G HT/PER HT/PER (UTC) (F) (DEG/KT/KT) (MB) (FT/S) (FT/S) CHESAPEAKE LIGHT NOT AVBL 64 E VA BEACH NOT AVBL DUCK NOT AVBL 2 E DUCK NOT AVBL OREGON INLET NOT AVBL 13E OREGON INLT NOT AVBL HATTERAS CG NOT AVBL DIAMOND BUOY NOT AVBL CAPE LOOKOUT NOT AVBL BEAUFORT LAB NOT AVBL 30 SE NEW RVR IN NOT AVBL 30 SE NEW RVR IN NOT AVBL 27 SE WRIGHTSVLE NOT AVBL 5 SE WRIGHTSVLE NOT AVBL 225 S CAPE HAT NOT AVBL 41 SE CHARLESTON NOT AVBL $$

USA.gov is the U.S. government's official web portal to all federal, state and local government web resources and services.